Change the Weather History Date:

Tuesday, October 15, 2013

  Actual Average (KORH) Record (KORH)
Temperature  
Mean Temperature 58 °F 50 °F  
Max Temperature 68 °F 59 °F 85 °F (1956)
Min Temperature 50 °F 42 °F 28 °F (1928)
Degree Days  
Heating Degree Days 6 15  
Month to date heating degree days 188  
Since 1 July heating degree days 381  
Cooling Degree Days 0 0  
Month to date cooling degree days 0  
Year to date cooling degree days 468  
Growing Degree Days 8 (Base 50)    
Moisture  
Dew Point 50 °F    
Average Humidity 75    
Maximum Humidity 93    
Minimum Humidity 57    
Precipitation  
Precipitation 0.00 in 0.16 in 3.49 in (1955)
Month to date precipitation 2.36  
Year to date precipitation 37.65  
Sea Level Pressure  
Sea Level Pressure 30.24 in    
Wind  
Wind Speed 2 mph (East)    
Max Wind Speed 6 mph    
Max Gust Speed -    
Visibility 10 miles    
Events      
T = Trace of Precipitation, MM = Missing Value Source: NWS Daily Summary

Daily Weather History Graph

Daily Weather History Graph

Search for Another Location

Airport or City:

Trip Planner

Search our weather history database for the weather conditions in past years. The results will help you decide how hot, cold, wet, or windy it might be!

Date:

Astronomy

Oct. 15, 2013 Rise Set
Actual Time 7:00 AM EDT 6:04 PM EDT
Civil Twilight 6:31 AM EDT 6:32 PM EDT
Nautical Twilight 5:59 AM EDT 7:05 PM EDT
Astronomical Twilight 5:26 AM EDT 7:38 PM EDT
Moon 4:11 PM EDT (10/15) 3:15 AM EDT (10/15)
Length of Visible Light 12h 00m
Length of Day
11h 04m
Waxing Gibbous, 87% of the Moon is Illuminated
Oct 15
Waxing Gibbous
Oct 18
Full
Oct 26
Last Quarter
Nov 3
New
Nov 10
First Quarter

Hourly Weather History & Observations

Time (EDT) Temp. Dew Point Humidity Pressure Visibility Wind Dir Wind Speed Gust Speed Precip Events Conditions
12:52 AM 57.0 °F 46.0 °F 67% 30.27 in 10.0 mi Calm Calm - N/A   Overcast
1:52 AM 54.0 °F 46.9 °F 77% 30.26 in 10.0 mi SSE 3.5 mph - N/A   Overcast
2:52 AM 54.0 °F 46.0 °F 75% 30.26 in 10.0 mi Calm Calm - N/A   Overcast
3:52 AM 53.1 °F 46.9 °F 80% 30.25 in 10.0 mi Calm Calm - N/A   Overcast
4:52 AM 51.1 °F 48.0 °F 89% 30.25 in 10.0 mi Calm Calm - N/A   Overcast
5:52 AM 53.1 °F 48.0 °F 83% 30.26 in 10.0 mi Calm Calm - N/A   Mostly Cloudy
6:52 AM 51.1 °F 48.0 °F 89% 30.27 in 10.0 mi Calm Calm - N/A   Overcast
7:52 AM 54.0 °F 48.9 °F 83% 30.28 in 10.0 mi Calm Calm - N/A   Overcast
8:52 AM 57.0 °F 50.0 °F 77% 30.29 in 10.0 mi Calm Calm - N/A   Overcast
9:52 AM 60.1 °F 51.1 °F 72% 30.28 in 10.0 mi Variable 5.8 mph - N/A   Overcast
10:52 AM 62.1 °F 52.0 °F 70% 30.28 in 10.0 mi Variable 4.6 mph - N/A   Overcast
11:52 AM 64.0 °F 52.0 °F 65% 30.27 in 10.0 mi East 4.6 mph - N/A   Mostly Cloudy
12:52 PM 64.9 °F 51.1 °F 61% 30.25 in 10.0 mi East 3.5 mph - N/A   Overcast
1:52 PM 66.9 °F 51.1 °F 57% 30.23 in 10.0 mi NNE 3.5 mph - N/A   Overcast
2:52 PM 66.0 °F 51.1 °F 59% 30.22 in 10.0 mi ESE 3.5 mph - N/A   Overcast
3:52 PM 66.9 °F 51.1 °F 57% 30.20 in 10.0 mi East 4.6 mph - N/A   Mostly Cloudy
4:52 PM 66.0 °F 51.1 °F 59% 30.20 in 10.0 mi ESE 4.6 mph - N/A   Clear
5:52 PM 63.0 °F 52.0 °F 67% 30.19 in 10.0 mi East 3.5 mph - N/A   Clear
6:52 PM 59.0 °F 52.0 °F 78% 30.22 in 10.0 mi Calm Calm - N/A   Scattered Clouds
7:52 PM 59.0 °F 53.1 °F 81% 30.23 in 10.0 mi East 3.5 mph - N/A   Overcast
8:52 PM 57.9 °F 48.9 °F 72% 30.22 in 10.0 mi SE 3.5 mph - N/A   Scattered Clouds
9:52 PM 53.1 °F 50.0 °F 89% 30.23 in 10.0 mi Calm Calm - N/A   Scattered Clouds
10:52 PM 53.1 °F 50.0 °F 89% 30.22 in 10.0 mi SSE 3.5 mph - N/A   Overcast
11:52 PM 50.0 °F 48.0 °F 93% 30.20 in 9.0 mi NNW 3.5 mph - N/A   Clear